Vertical_Velocity
-1 -1 -1 -1 -1 -1 2 2 -2 1 -1 -1 1 2 0 -1 -0 0 -2 -2 -1 0 1 -2 -2 -2 -1 1 -0 -3 0 1 -0 -2 1 1 -4 -4 -2 1 7 -3 -2
-0 -4 -1 3 3 2 2 2 -1 1 1 4 4 2 0 0 0 1 0 1 -0 -2 -3 -1 -2 1 1 -0 1 0 -1 1 -1 -3 1 2 2 -0 0 1 -2 2 1
-0 2 1 1 2 -0 -2 -1 3 0 -1 -1 0 1 2 1 -0 -1 -2 0 1 -0 1 2 -0 -2 -2 -1 -0 2 2 1 0 -0 -3 2 1 2 -1 2 1 1 -2
6 2 -3 2 2 0 1 0 -2 -1 2 -0 0 -1 -3 -2 3 3 0 0 0 0 1 1 0 -1 -2 -2 -0 -2 -3 -2 2 1 -1 -4 -2 1 1 -1 -4 2 -4
7 3 1 0 -2 0 2 2 3 3 3 1 -1 -2 -0 -2 -2 -0 1 -4 -3 -1 0 1 0 1 2 1 -2 -3 -2 -1 1 -1 0 -1 -1 -3 -2 1 -3 -2 -2
-2 8 6 0 3 -1 1 -2 2 -1 -3 -2 2 2 1 -3 -1 2 1 -0 -3 -7 -7 -2 -1 -2 -1 2 3 4 2 -2 -1 -2 -4 -2 1 3 1 -1 -0 -2 -14
-26 2 -2 4 2 3 1 2 1 -3 -1 1 -3 2 -1 0 -5 -6 -3 -2 -2 -3 -4 -3 -2 -2 -3 -6 -1 0 4 8 3 -0 -1 -0 -4 1 3 -4 -1 -0 -2
-11 -9 -20 -16 7 3 0 2 -2 -2 -2 -0 -1 2 -3 -6 -2 1 1 -2 0 0 -3 -0 -0 -2 -3 -5 -5 -3 -1 -1 6 5 4 -1 3 0 1 1 3 -5 -7
10 -0 4 1 4 4 1 2 -0 0 -1 2 0 -5 -3 -1 -3 1 5 1 -1 -1 0 -0 0 -1 -2 -5 -2 -0 -2 -3 1 1 1 1 -0 -1 6 -2 1 4 -7
-11 2 -3 2 4 0 -1 -0 1 2 -0 0 -2 -0 -1 1 -0 3 -1 1 1 -1 1 -1 -2 -2 0 -1 0 -2 -0 -2 -8 -9 -3 4 3 3 6 7 -0 1 4
2 -1 1 1 -1 2 0 -0 3 -1 2 2 -1 -1 -2 1 1 -2 -1 -0 -0 0 -2 -1 -2 1 2 1 2 0 -3 1 1 -1 -1 -7 1 1 2 3 6 4 2
4 -3 -6 1 5 2 0 -3 -1 1 -1 -1 1 -1 1 -2 -4 1 3 2 2 1 -1 0 -0 2 1 -2 -3 -1 -1 -3 -4 -1 0 -0 -3 -7 -6 -2 2 4 7
1 5 6 2 0 -2 -1 0 -2 -1 4 1 0 -2 -0 -1 1 3 1 -1 -3 -5 -5 -5 -6 -7 -6 -6 -8 -10 -6 -4 -5 -5 -4 -2 -0 -3 -1 -1 1 3 -3
-2 0 0 1 -3 -2 1 1 1 -0 1 1 1 -1 -2 -0 3 2 2 -2 -6 -7 -6 -4 -7 -9 -10 -6 -5 -6 -5 -3 -6 -2 -2 -3 -3 -4 -2 4 -3 0 -3
-0 1 0 -0 -0 0 -0 -2 0 1 2 -0 -1 -1 0 1 -2 -2 -2 -4 -4 -4 -4 -2 -2 -0 0 -1 -2 -1 -2 -4 -7 -4 -4 -4 -2 -3 -4 1 2 2 5
-0 -1 2 4 2 3 -0 -1 -1 -4 -2 0 0 0 3 -2 -3 -2 -1 -3 -0 -0 -0 -2 -1 -1 -0 2 -1 -3 1 -3 -2 -5 -3 1 -2 -2 -5 -2 1 2 2
-1 -2 -2 1 1 -2 -2 -1 -2 1 5 -1 -2 1 2 -0 -2 -3 -4 -2 1 1 -2 1 -1 2 -1 1 -4 -1 -5 0 3 -1 -0 -1 -2 -0 -2 -4 -0 1 -3
-1 1 4 3 4 4 2 1 -0 -4 -2 -1 -3 -3 -4 -4 -0 3 4 -1 -3 5 6 3 2 4 1 1 -3 -0 0 -1 1 -2 -2 -1 -1 -1 -3 -2 1 -1 -3
2 -1 -1 -2 -2 -4 5 0 -0 -1 -2 -0 -3 -7 -2 -1 2 4 3 4 -1 -4 1 -1 3 1 -1 -3 2 2 2 1 4 -1 -1 1 0 0 -1 3 0 3 3
2 -1 -4 -3 1 -2 -0 3 -4 -6 -2 -0 3 -5 -8 0 3 2 2 1 -1 0 -0 0 0 -2 -3 -1 3 2 1 0 -0 0 -1 -2 3 2 -3 -2 -0 -3 -1
-0 1 2 2 3 -7 -40 -0 10 1 1 -0 -7 -3 4 -3 -2 1 -2 -2 -0 1 -1 -2 -2 -2 -2 1 4 3 1 -1 1 -2 -2 0 1 -5 1 -1 1 1 2
-7 -12 -9 -5 -5 -10 -4 4 6 6 5 4 -1 2 6 1 5 5 -2 2 2 0 2 2 -1 -1 2 1 1 1 -1 -1 1 -1 -1 -2 -1 2 -0 -3 -1 1 1
6 -2 -4 -2 -5 -1 -3 0 -3 4 3 3 4 1 1 3 -2 1 4 1 -1 0 2 2 -1 -2 2 2 1 2 -2 -0 -1 0 -3 -1 1 2 4 1 2 -0 1
2 3 -6 -2 -1 -1 1 -0 6 -14 -4 2 0 3 -2 2 3 4 2 0 2 1 1 1 1 -1 1 1 3 2 0 0 1 1 1 -1 -1 3 2 3 5 3 1
3 1 -2 -2 1 0 5 1 2 2 0 -6 -2 -1 -1 -1 1 -0 0 2 2 -0 -0 -0 -1 -0 1 1 1 1 2 1 1 1 0 2 2 5 5 3 2 -0 -0
4 1 -0 2 0 3 -2 0 3 2 4 9 0 -2 0 -0 1 -1 -0 -0 -2 0 -0 -1 -1 0 -0 1 -0 0 1 0 -1 3 0 1 -0 1 2 -1 -0 4 -3
Height
1520 1524 1528 1531 1533 1536 1538 1539 1539 1539 1537 1536 1534 1532 1529 1527 1525 1522 1520 1517 1514 1510 1507 1505 1503 1501 1498 1497 1495 1494 1493 1491 1489 1486 1485 1484 1482 1481 1481 1482 1481 1480 1479
1516 1521 1526 1530 1532 1535 1537 1537 1538 1537 1536 1535 1533 1530 1527 1525 1523 1520 1518 1515 1512 1508 1505 1503 1501 1499 1497 1496 1494 1492 1491 1489 1487 1484 1483 1481 1479 1478 1477 1477 1477 1475 1473
1514 1519 1524 1528 1531 1534 1536 1537 1537 1536 1534 1533 1531 1529 1526 1523 1521 1518 1516 1513 1511 1507 1505 1502 1499 1497 1495 1494 1492 1490 1488 1487 1485 1482 1479 1478 1476 1475 1474 1473 1473 1470 1468
1510 1516 1523 1528 1531 1533 1534 1535 1535 1534 1531 1530 1528 1526 1524 1522 1520 1516 1513 1510 1508 1506 1504 1501 1498 1496 1493 1492 1490 1487 1485 1483 1481 1479 1476 1475 1473 1472 1470 1469 1467 1466 1463
1511 1516 1519 1524 1529 1533 1534 1534 1532 1531 1529 1528 1526 1524 1521 1519 1517 1515 1511 1507 1506 1504 1502 1500 1497 1494 1492 1489 1486 1485 1482 1480 1477 1474 1472 1470 1469 1468 1467 1465 1463 1460 1458
1509 1517 1522 1525 1528 1531 1533 1532 1531 1530 1529 1527 1525 1521 1518 1516 1515 1514 1511 1507 1503 1501 1499 1497 1494 1490 1488 1486 1485 1483 1480 1476 1474 1471 1469 1467 1465 1464 1462 1461 1459 1455 1451
1507 1519 1524 1528 1529 1530 1530 1529 1528 1526 1526 1524 1523 1520 1518 1515 1514 1512 1509 1505 1501 1498 1496 1494 1491 1487 1483 1481 1480 1478 1476 1474 1470 1466 1464 1464 1461 1461 1458 1455 1454 1452 1449
1510 1509 1514 1517 1527 1526 1527 1526 1524 1524 1524 1522 1522 1520 1517 1515 1513 1510 1506 1503 1500 1496 1493 1491 1487 1483 1479 1475 1472 1471 1470 1467 1464 1461 1458 1457 1456 1454 1453 1450 1447 1445 1442
1510 1513 1514 1519 1523 1524 1524 1524 1522 1521 1521 1521 1520 1520 1518 1515 1512 1509 1505 1502 1499 1497 1494 1490 1485 1481 1477 1474 1470 1465 1462 1460 1459 1456 1453 1451 1449 1448 1446 1441 1439 1438 1433
1508 1511 1515 1520 1522 1522 1522 1523 1522 1520 1520 1520 1520 1519 1516 1515 1513 1510 1507 1503 1500 1497 1494 1489 1485 1480 1476 1472 1466 1461 1457 1454 1452 1450 1447 1446 1443 1441 1439 1436 1434 1431 1429
1505 1510 1515 1519 1519 1520 1521 1522 1521 1521 1520 1519 1518 1518 1517 1515 1513 1511 1507 1503 1500 1496 1492 1489 1486 1482 1476 1471 1467 1460 1455 1450 1446 1444 1441 1440 1437 1435 1433 1432 1429 1427 1423
1506 1509 1514 1517 1519 1519 1520 1521 1521 1520 1519 1518 1518 1518 1517 1515 1513 1510 1507 1503 1500 1497 1493 1490 1487 1484 1478 1472 1467 1460 1454 1450 1445 1439 1435 1432 1430 1429 1427 1425 1423 1421 1418
1511 1512 1513 1514 1516 1517 1519 1520 1519 1519 1518 1518 1518 1517 1516 1514 1513 1510 1507 1504 1501 1499 1496 1493 1490 1485 1480 1475 1468 1462 1454 1446 1439 1436 1431 1427 1424 1422 1420 1419 1417 1414 1411
1509 1513 1513 1512 1513 1515 1517 1518 1518 1519 1519 1519 1518 1517 1517 1516 1514 1511 1507 1504 1501 1499 1496 1492 1488 1485 1481 1475 1467 1461 1454 1447 1441 1434 1429 1424 1420 1416 1414 1412 1409 1406 1403
1508 1510 1510 1510 1510 1512 1513 1515 1517 1519 1520 1520 1519 1519 1517 1516 1514 1511 1508 1504 1502 1498 1494 1490 1486 1482 1477 1472 1467 1460 1452 1445 1440 1434 1428 1423 1417 1412 1409 1406 1403 1400 1398
1505 1508 1510 1510 1510 1512 1514 1515 1516 1516 1517 1518 1518 1518 1517 1515 1513 1511 1507 1503 1499 1494 1491 1487 1483 1478 1474 1469 1463 1458 1452 1445 1440 1435 1429 1423 1417 1411 1406 1402 1399 1396 1392
1503 1506 1509 1511 1512 1513 1514 1516 1517 1518 1517 1516 1517 1517 1516 1513 1511 1508 1505 1502 1497 1493 1488 1484 1480 1475 1471 1466 1461 1458 1451 1446 1440 1435 1429 1423 1417 1411 1405 1399 1395 1391 1387
1504 1508 1511 1512 1513 1513 1514 1515 1515 1516 1516 1514 1515 1515 1514 1512 1508 1505 1502 1498 1494 1490 1485 1480 1475 1470 1466 1462 1459 1455 1449 1444 1438 1434 1428 1422 1416 1409 1403 1398 1393 1388 1384
1502 1506 1510 1512 1512 1515 1516 1516 1515 1515 1514 1511 1510 1512 1513 1510 1507 1503 1499 1495 1490 1485 1481 1475 1470 1466 1462 1458 1455 1450 1445 1439 1435 1430 1425 1419 1414 1407 1400 1395 1389 1384 1379
1502 1505 1509 1511 1512 1514 1517 1516 1515 1514 1513 1514 1508 1506 1508 1508 1505 1500 1496 1491 1486 1481 1476 1471 1467 1463 1458 1454 1450 1445 1439 1435 1430 1426 1421 1415 1409 1403 1396 1390 1384 1377 1372
1502 1505 1508 1511 1513 1514 1514 1513 1514 1512 1510 1508 1508 1507 1504 1504 1501 1497 1493 1487 1483 1477 1472 1467 1462 1457 1452 1448 1443 1438 1433 1429 1425 1421 1416 1410 1405 1399 1393 1385 1377 1370 1364
1505 1506 1508 1509 1511 1514 1513 1513 1512 1509 1509 1505 1503 1502 1500 1500 1497 1494 1489 1484 1479 1473 1467 1462 1457 1451 1445 1441 1436 1431 1427 1423 1420 1416 1411 1406 1400 1393 1386 1378 1370 1362 1355
1505 1506 1510 1510 1512 1508 1506 1505 1504 1503 1502 1503 1501 1499 1496 1496 1493 1488 1483 1478 1473 1468 1463 1457 1450 1443 1439 1434 1430 1426 1422 1418 1415 1411 1406 1401 1394 1388 1381 1372 1363 1354 1347
1504 1504 1507 1508 1506 1502 1500 1500 1502 1502 1499 1498 1497 1495 1494 1492 1489 1484 1479 1473 1469 1464 1457 1450 1443 1437 1432 1427 1423 1419 1416 1413 1410 1406 1402 1396 1390 1384 1376 1367 1358 1348 1340
1506 1502 1503 1503 1502 1500 1498 1497 1499 1498 1496 1495 1493 1492 1491 1488 1484 1480 1475 1469 1464 1457 1450 1444 1438 1432 1426 1421 1416 1413 1410 1407 1405 1402 1397 1392 1387 1381 1373 1363 1353 1343 1333
1503 1501 1501 1498 1499 1498 1497 1497 1496 1495 1494 1492 1490 1488 1486 1483 1479 1475 1469 1464 1457 1451 1445 1439 1433 1427 1421 1416 1412 1408 1404 1402 1400 1397 1393 1389 1384 1378 1370 1360 1350 1340 1328